星链-36755(STARLINK-36755)

导读

STARLINK-36755是美国太空探索技术公司(SpaceX)研制的Starlink星链互联网卫星,于2026年2月11日由猎鹰9号火箭,从范登堡太空部队基地发射升空,它是Starlink 17-34任务的组网卫星之一。 该卫星运行于近地轨道,将加入全球覆盖的星链卫星互联网星座,为全球用户提供高速低延迟的宽带互联网接入服务。此次发射复用了编号B1100的猎鹰9号助推器,并完成了助推器在无人船上的回收。

基本信息
目录编号:
67726
目录名称:
STARLINK-36755
国际标识:
2026-026F
轨道中心:
EARTH
卫星名称:
星链-36755
卫星全名:
星链-36755(STARLINK-36755)
卫星状态:
在轨 (已飞行205 天)
发射日期:
2026-02-11 UTC
国别 :
美国 (US)
星等 :
--
轨道信息
数据来源 国际轨道数据
星历时间: 2026-09-02T11:15:42+0800
1天前
查看轨道信息
半长轴: 6843.676km
偏心率: 0.0001772
轨道倾角: 97.284°
近地点辐角 95.006°
升交点赤经 297.188°
平近点角 265.139°
近地点: 464.326km
远地点: 466.752km
周期: 93.906分钟
每日圈数: 15.334465
详细信息
固有亮度:
5
最大亮度:
2.5
卫星平台:
Starlink V1.0
覆盖范围:
全球
运营商:
太空探索技术公司
运营商所在国:
美国
制造商(研发单位):
太空探索技术公司
制造商所在国:
美国
使用方式:
暂无
卫星简介
Starlink 计划是 SpaceX 推出的全球卫星互联网项目,通过发射低轨道卫星,为全球尤其是偏远地区提供高速、低延迟的互联网服务。自 2019 年起,Starlink 已部署数千颗卫星,旨在缩小全球数字鸿沟,推动互联网普及。该项目还为军事、航空等行业提供通信支持,带来广泛经济效益。
2D轨道图
3D轨道图
轨道高度分析图
轨道倾角分析图
轨道综合分析图
查看轨道综合分析图
交会数据列表
事件ID 空间交会对象 最接近时刻(TCA) 交会距离 交会风险概率(CRP) 交会风险指数(CRI) 操作
CDM_260904-073005-227306-772621
2026-09-04T
07:30:36+0000
1.501 km
极远距离
4.957093E-6 低风险 0.49
CDM_260904-064305-227306-772621
2026-09-04T
06:43:39+0000
1.612 km
极远距离
3.960546E-6 低风险 0.47
CDM_260830-093506-370006-772621
2026-08-30T
09:35:57+0000
2.223 km
极远距离
2.203553E-6 低风险 0.42
CDM_260904-131104-780406-772621
2026-09-04T
13:11:43+0000
2.353 km
极远距离
1.967492E-6 低风险 0.41
CDM_260903-045906-532806-772621
2026-09-03T
04:59:23+0000
2.973 km
极远距离
1.344669E-6 低风险 0.38
CDM_260904-050806-349906-772621
2026-09-04T
05:08:41+0000
2.924 km
极远距离
1.177748E-6 低风险 0.36